Theta_e
322 316 315 316 315 314 314 315 318 318 318 317 317 316 317 314 313 317 317 319 325 323
319 318 316 315 313 313 317 317 317 317 316 316 316 315 316 312 313 317 315 318 325 319
317 316 316 315 313 313 314 317 315 314 311 310 309 309 313 313 312 314 313 320 320 319
315 315 315 314 313 313 313 314 313 308 308 307 306 308 309 313 312 311 311 313 313 315
315 314 313 311 313 315 314 311 308 307 307 306 306 307 306 310 310 309 310 311 311 313
314 312 310 311 311 312 310 308 307 307 306 306 306 306 307 311 310 310 311 310 310 312
311 309 309 310 310 310 308 306 306 307 307 307 307 306 309 309 310 310 310 311 310 310
310 309 309 310 309 307 306 306 306 306 307 308 307 307 307 309 310 310 310 312 311 311
309 309 309 309 306 305 305 305 306 306 307 307 308 305 305 307 310 310 310 310 311 312
307 307 309 307 305 304 304 305 305 306 307 306 309 304 303 305 309 310 311 311 311 311
307 307 308 306 305 305 305 305 305 307 307 306 310 303 301 304 310 311 311 311 312 313
307 307 305 304 304 305 305 305 307 307 306 305 308 301 300 304 310 309 309 311 312 312
308 306 304 305 305 305 306 306 307 306 306 306 308 300 299 303 311 309 309 311 312 306
308 306 306 305 305 305 306 306 306 305 306 308 308 304 298 299 310 310 310 309 310 310
Wind_Speed
12 7 8 10 11 11 12 11 8 10 10 11 12 11 10 10 10 14 12 16 13 13
9 13 14 12 9 10 12 10 11 13 12 13 14 13 11 11 13 13 10 12 13 10
12 12 12 13 10 10 11 13 10 9 8 9 10 12 13 11 11 13 7 8 11 7
12 12 11 12 11 10 10 12 9 6 10 10 10 11 12 14 12 11 8 5 8 4
10 9 9 12 14 15 13 5 8 10 11 11 11 10 11 14 10 7 10 2 5 8
14 14 14 12 11 12 10 9 12 11 11 11 10 10 10 12 9 8 7 6 3 6
14 13 11 12 13 8 8 11 11 11 11 10 9 9 12 12 7 6 5 8 5 5
12 10 11 13 9 10 11 10 11 11 10 9 8 7 9 10 10 6 8 6 9 7
13 12 12 9 10 12 12 11 10 10 10 8 6 9 11 7 6 5 5 7 7 7
13 14 12 11 11 12 12 11 11 10 5 7 9 9 8 7 8 4 5 6 6 7
13 14 13 12 12 11 11 11 9 7 5 5 6 6 9 8 8 3 4 4 6 6
14 13 13 13 13 12 10 9 6 3 4 5 3 8 8 7 5 4 5 5 6 7
13 11 12 12 12 10 10 8 6 4 3 4 4 7 7 7 2 5 5 5 6 11
10 11 12 11 10 9 9 8 6 3 2 5 7 6 7 6 3 3 5 6 5 9
Wind_Direction
317 326 318 317 319 313 305 297 299 305 299 297 293 294 292 286 283 279 280 273 258 260
322 317 310 309 303 292 293 299 300 313 310 308 301 290 291 281 282 284 279 275 265 249
324 313 311 309 299 299 293 293 307 307 317 310 310 298 289 279 286 291 287 287 273 229
314 305 315 312 302 298 304 296 306 302 291 281 280 279 286 282 280 286 275 305 298 188
310 314 312 301 300 300 290 337 294 288 275 271 267 271 281 282 280 278 274 332 307 261
321 327 312 306 302 298 309 301 294 283 272 268 265 267 272 283 267 277 255 220 245 301
316 314 303 299 291 303 296 293 289 283 278 265 258 261 268 281 280 260 263 212 222 243
314 310 301 295 313 301 299 291 287 285 278 264 249 248 252 255 259 233 242 224 201 210
321 312 309 324 311 305 298 291 284 283 281 265 244 241 235 259 265 250 226 227 196 205
319 317 317 317 310 305 300 294 285 280 273 275 248 226 212 218 257 248 212 217 194 212
326 321 322 318 307 304 301 297 296 281 264 273 263 185 180 190 241 200 214 206 195 195
332 328 321 317 316 314 310 308 302 294 291 266 217 157 170 192 205 216 186 180 169 185
333 325 319 318 319 314 309 308 307 285 286 247 168 164 168 203 185 187 141 129 141 58
336 329 322 321 317 312 314 333 354 356 321 160 147 161 158 190 226 183 159 155 177 114